DELTA 1 DEB, 21499

Orbit data source: Space-Track

DELTA 1 DEB, 21499 is space debris in SSO originally from a launch on Thu, 12 Jun 1975 UTC launched from the Air Force Western Test Range (AFWTR). Debris objects in space refer to the collection of defunct objects orbiting the Earth. Examples of debris include non-operational satellites, rocket bodies, and fragments generated from explosions, collisions, or faulty payload assembly.

Loading next visibility...
Identifier
21499, 1975-052FU
Orbit
SSO
Country
Flag of USUS
Related business
Manufacturer
Unknown
Mission
Spacecraft
Bus & Motor
Unknown
Mass
Unknown
Launch date (UTC)
1975-06-12 (50 years ago)
Launch vehicle
Unknown
Launch site
Air Force Western Test Range (AFWTR)
Object type
Payload
Rocket body
Debris
Shape & HBR
Unknown shape, 0.1 m
Radar Cross Section
Small (<0.1 m²)

Expand to show TLE details & history
Last TLE update: 10 hours ago

TLE from 10 hours ago
0 DELTA 1 DEB
1 21499U 75052FU  25292.06241784  .00002285  00000-0  40355-2 0  9992
2 21499  99.6357  70.5690 0139545 135.0939 289.7240 13.40012231662160
Epoch: 2025-10-19T01:29Z
TLE epoch observation values (Epoch: 2025-10-19T01:29:52.901Z)
Latitude
61.83065°
Longitude
1.9283°
Altitude
1,085.77 km
Speed
7.332 km/s
True Right ascension
03h 28m 43s
True Declination
61° 41' 37"
Sunlit
Object was in full shadow at epoch
Visualization orbit readout
Latitude
Unknown
Longitude
Unknown
Altitude
Unknown
Speed
Unknown
Apparent Right ascension
Unknown
Apparent Declination
Unknown
Sunlit
N/A
Visualization observer readout
Local Sidereal Time
06:12:33
Azimuth
Unknown
Elevation
Unknown
Doppler factor
Unknown
Orbital elements
Apogee altitude
1,210.989 km
Perigee altitude
1,002.099 km
Semi-major axis
7,484.681 km
Eccentricity
0.01395
Inclination
99.6357°
RAAN
70.569°
Arg. of periapsis
135.0939°
True anomaly
288.21002°
Mean anomaly
289.724°
Eccentric anomaly
288.96788°
Mean motion
3.35184 °/min
Orbital period
107.4 mins
BSTAR
0.0040355
Loading maneuver chart data...
Computing Atmospheric mass density...
Loading historical data...
Loading historical data...
Loading historical data...
Loading historical data...
Loading historical data...
Loading historical data...
Loading historical data...

Documentation

Showing up to 5 results
|